Oak Ridge, TN

7:05 AM EST on January 18, 2018 (GMT -0500)
Oak Ridge

Weather History for KOQT - September, 2012

Change the Weather History Date:

Thursday, September 13, 2012

  Actual Average (KTYS) Record (KTYS)
Temperature  
Mean Temperature 71 °F -  
Max Temperature 81 °F 82 °F 97 °F (1998)
Min Temperature 62 °F 62 °F 47 °F (1940)
Cooling Degree Days 6    
Growing Degree Days 21 (Base 50)    
Moisture  
Dew Point 60 °F    
Average Humidity 71    
Maximum Humidity 93    
Minimum Humidity 43    
Precipitation  
Precipitation 0.00 in - - ()
Sea Level Pressure  
Sea Level Pressure 30.27 in    
Wind  
Wind Speed 0 mph (NNW)    
Max Wind Speed 4 mph    
Max Gust Speed -    
Visibility 9 miles    
Events      
Averages and records for this station are not official NWS values.
T = Trace of Precipitation, MM = Missing Value Source: NWS Daily Summary

Daily Weather History Graph

Daily Weather History Graph

Search for Another Location

Airport or City:

Trip Planner

Search our weather history database for the weather conditions in past years. The results will help you decide how hot, cold, wet, or windy it might be!

Date:

Astronomy

Sep. 13, 2012 Rise Set
Actual Time 7:18 AM EDT 7:46 PM EDT
Civil Twilight 6:52 AM EDT 8:12 PM EDT
Nautical Twilight 6:22 AM EDT 8:42 PM EDT
Astronomical Twilight 5:51 AM EDT 9:13 PM EDT
Moon 4:40 AM EDT (9/13) 6:06 PM EDT (9/13)
Length of Visible Light 13h 19m
Length of Day
12h 28m
Waning Crescent, 7% of the Moon is Illuminated
Sep 13
Waning Crescent
Sep 15
New
Sep 22
First Quarter
Sep 29
Full
Oct 8
Last Quarter

Hourly Weather History & Observations

Time (EDT) Temp. Heat Index Dew Point Humidity Pressure Visibility Wind Dir Wind Speed Gust Speed Precip Events Conditions
12:53 AM 69.1 °F - 61.0 °F 75% 30.26 in 10.0 mi Calm Calm - N/A   Mostly Cloudy
1:53 AM 69.1 °F - 61.0 °F 75% 30.26 in 10.0 mi Calm Calm - N/A   Overcast
2:53 AM 66.0 °F - 61.0 °F 84% 30.26 in 10.0 mi Calm Calm - N/A   Mostly Cloudy
3:53 AM 64.9 °F - 61.0 °F 87% 30.26 in 10.0 mi Calm Calm - N/A   Clear
4:53 AM 64.0 °F - 61.0 °F 90% 30.26 in 10.0 mi Calm Calm - N/A   Mostly Cloudy
5:53 AM 63.0 °F - 60.1 °F 90% 30.28 in 8.0 mi Calm Calm - N/A   Mostly Cloudy
6:53 AM 63.0 °F - 60.1 °F 90% 30.30 in 8.0 mi Calm Calm - N/A   Mostly Cloudy
7:53 AM 62.1 °F - 60.1 °F 93% 30.33 in 5.0 mi Calm Calm - N/A   Scattered Clouds
8:48 AM 64.4 °F - 60.8 °F 88% 30.37 in 6.0 mi Calm Calm - N/A   Partly Cloudy
8:53 AM 64.0 °F - 61.0 °F 90% 30.34 in 6.0 mi Calm Calm - N/A   Partly Cloudy
9:53 AM 68.0 °F - 62.1 °F 81% 30.35 in 10.0 mi Calm Calm - N/A   Partly Cloudy
10:53 AM 72.0 °F - 60.1 °F 66% 30.33 in 10.0 mi Calm Calm - N/A   Clear
11:53 AM 77.0 °F - 59.0 °F 54% 30.32 in 10.0 mi Variable 3.5 mph - N/A   Clear
12:53 PM 79.0 °F - 55.9 °F 45% 30.30 in 10.0 mi Calm Calm - N/A   Partly Cloudy
1:53 PM 80.1 °F 80.4 °F 57.0 °F 45% 30.27 in 10.0 mi Calm Calm - N/A   Mostly Cloudy
2:53 PM 79.0 °F - 57.0 °F 47% 30.24 in 10.0 mi Calm Calm - N/A   Clear
3:53 PM 80.1 °F 80.2 °F 55.9 °F 43% 30.22 in 10.0 mi Calm Calm - N/A   Scattered Clouds
4:53 PM 79.0 °F - 55.9 °F 45% 30.21 in 10.0 mi NNW 3.5 mph - N/A   Partly Cloudy
5:53 PM 78.1 °F - 59.0 °F 52% 30.21 in 10.0 mi Calm Calm - N/A   Clear
6:53 PM 78.1 °F - 60.1 °F 54% 30.21 in 10.0 mi Calm Calm - N/A   Clear
7:53 PM 75.9 °F - 60.1 °F 58% 30.21 in 10.0 mi Calm Calm - N/A   Clear
8:53 PM 72.0 °F - 63.0 °F 73% 30.23 in 10.0 mi Calm Calm - N/A   Clear
9:53 PM 69.1 °F - 63.0 °F 81% 30.23 in 10.0 mi Calm Calm - N/A   Clear
10:53 PM 66.9 °F - 62.1 °F 84% 30.24 in 10.0 mi Calm Calm - N/A   Clear
11:53 PM 66.0 °F - 62.1 °F 87% 30.25 in 10.0 mi Calm Calm - N/A   Clear